Time,TemperatureF,DewpointF,PressureIn,WindDirection,WindDirectionDegrees,WindSpeedMPH,WindSpeedGustMPH,Humidity,HourlyPrecipIn,Conditions,Clouds,dailyrainin,SoftwareType,DateUTC
2013-11-07 00:01:00,47.3,0.0,30.04,West,270,0.4,1.8,0,0.05,,,0.00,WUHU216HW,2013-11-07 08:01:00,
2013-11-07 00:06:00,47.3,0.0,30.04,WSW,248,0.0,1.6,0,0.06,,,0.01,WUHU216HW,2013-11-07 08:06:00,
2013-11-07 00:11:00,47.3,0.0,30.04,WSW,248,1.1,1.1,0,0.05,,,0.01,WUHU216HW,2013-11-07 08:11:00,
2013-11-07 00:16:00,47.3,0.0,30.03,WSW,248,0.2,1.1,0,0.06,,,0.02,WUHU216HW,2013-11-07 08:16:00,
2013-11-07 00:21:00,47.3,0.0,30.03,North,0,0.0,1.1,0,0.06,,,0.02,WUHU216HW,2013-11-07 08:21:00,
2013-11-07 00:26:00,47.5,0.0,30.03,SW,225,1.1,1.1,0,0.06,,,0.03,WUHU216HW,2013-11-07 08:26:00,
2013-11-07 00:31:00,47.5,0.0,30.03,SW,225,0.7,1.1,0,0.06,,,0.03,WUHU216HW,2013-11-07 08:31:00,
2013-11-07 00:36:00,47.7,0.0,30.03,SW,225,0.7,0.9,0,0.05,,,0.03,WUHU216HW,2013-11-07 08:36:00,
2013-11-07 00:41:00,47.7,0.0,30.02,SW,225,2.2,2.2,0,0.05,,,0.03,WUHU216HW,2013-11-07 08:41:00,
2013-11-07 00:46:00,47.7,0.0,30.02,SSW,203,0.2,2.2,0,0.04,,,0.03,WUHU216HW,2013-11-07 08:46:00,
2013-11-07 00:51:00,47.7,0.0,30.02,West,270,1.8,2.2,0,0.04,,,0.03,WUHU216HW,2013-11-07 08:51:00,
2013-11-07 00:56:00,47.9,0.0,30.02,SW,225,1.3,2.5,0,0.04,,,0.04,WUHU216HW,2013-11-07 08:56:00,
2013-11-07 01:01:00,47.9,0.0,30.01,SW,225,2.5,2.5,0,0.04,,,0.04,WUHU216HW,2013-11-07 09:01:00,
2013-11-07 01:06:00,47.9,0.0,30.01,SW,225,1.3,2.5,0,0.04,,,0.05,WUHU216HW,2013-11-07 09:06:00,
2013-11-07 01:11:00,47.7,0.0,30.01,WSW,248,1.1,2.5,0,0.04,,,0.05,WUHU216HW,2013-11-07 09:11:00,
2013-11-07 01:16:00,47.7,0.0,30.01,WSW,248,0.9,1.6,0,0.03,,,0.05,WUHU216HW,2013-11-07 09:16:00,
2013-11-07 01:21:00,47.7,0.0,30.00,SW,225,1.8,2.2,0,0.03,,,0.05,WUHU216HW,2013-11-07 09:21:00,
2013-11-07 01:26:00,47.7,0.0,30.00,SW,225,0.7,2.2,0,0.02,,,0.05,WUHU216HW,2013-11-07 09:26:00,
2013-11-07 01:31:00,47.7,0.0,29.99,SW,225,1.3,2.0,0,0.02,,,0.05,WUHU216HW,2013-11-07 09:31:00,
2013-11-07 01:36:00,47.7,0.0,29.99,SW,225,0.4,1.6,0,0.03,,,0.06,WUHU216HW,2013-11-07 09:36:00,
2013-11-07 01:41:00,47.7,0.0,29.98,WSW,248,0.4,1.3,0,0.03,,,0.06,WUHU216HW,2013-11-07 09:41:00,
2013-11-07 01:46:00,47.7,0.0,29.98,WSW,248,0.2,1.1,0,0.03,,,0.06,WUHU216HW,2013-11-07 09:46:00,
2013-11-07 01:51:00,47.7,0.0,29.98,WSW,248,0.4,1.1,0,0.03,,,0.06,WUHU216HW,2013-11-07 09:51:00,
2013-11-07 01:56:00,47.9,0.0,29.98,SW,225,0.9,1.1,0,0.02,,,0.06,WUHU216HW,2013-11-07 09:56:00,
2013-11-07 02:01:00,47.9,0.0,29.97,SW,225,0.0,1.1,0,0.02,,,0.06,WUHU216HW,2013-11-07 10:01:00,
2013-11-07 02:06:00,47.9,0.0,29.97,SW,225,0.2,0.4,0,0.01,,,0.06,WUHU216HW,2013-11-07 10:06:00,
2013-11-07 02:11:00,47.9,0.0,29.97,WSW,248,1.1,1.1,0,0.01,,,0.06,WUHU216HW,2013-11-07 10:11:00,
2013-11-07 02:16:00,47.9,0.0,29.95,SW,225,0.0,1.1,0,0.01,,,0.06,WUHU216HW,2013-11-07 10:16:00,
2013-11-07 02:21:00,47.9,0.0,29.95,SW,225,0.0,1.1,0,0.01,,,0.06,WUHU216HW,2013-11-07 10:21:00,
2013-11-07 02:26:00,47.9,0.0,29.94,SW,225,0.4,0.4,0,0.01,,,0.06,WUHU216HW,2013-11-07 10:26:00,
2013-11-07 02:31:00,47.9,0.0,29.94,NNE,23,0.2,1.3,0,0.01,,,0.06,WUHU216HW,2013-11-07 10:31:00,
2013-11-07 02:36:00,48.1,0.0,29.94,West,270,0.9,1.3,0,0.00,,,0.06,WUHU216HW,2013-11-07 10:36:00,
2013-11-07 02:41:00,48.1,0.0,29.94,SW,225,1.3,1.6,0,0.01,,,0.07,WUHU216HW,2013-11-07 10:41:00,
2013-11-07 02:46:00,48.1,0.0,29.94,SW,225,0.2,2.5,0,0.01,,,0.07,WUHU216HW,2013-11-07 10:46:00,
2013-11-07 02:51:00,48.1,0.0,29.93,SW,225,0.0,2.5,0,0.01,,,0.07,WUHU216HW,2013-11-07 10:51:00,
2013-11-07 02:56:00,48.1,0.0,29.93,SW,225,0.0,0.2,0,0.01,,,0.07,WUHU216HW,2013-11-07 10:56:00,
2013-11-07 03:01:00,48.1,0.0,29.93,NW,315,0.4,1.1,0,0.01,,,0.07,WUHU216HW,2013-11-07 11:01:00,
2013-11-07 03:06:00,48.1,0.0,29.92,NW,315,0.2,1.1,0,0.01,,,0.07,WUHU216HW,2013-11-07 11:06:00,
2013-11-07 03:11:00,48.2,0.0,29.92,NW,315,0.4,0.7,0,0.01,,,0.07,WUHU216HW,2013-11-07 11:11:00,
2013-11-07 03:16:00,48.2,0.0,29.91,NW,315,0.0,0.4,0,0.01,,,0.07,WUHU216HW,2013-11-07 11:16:00,
2013-11-07 03:21:00,48.2,0.0,29.91,NNW,338,0.0,0.4,0,0.01,,,0.07,WUHU216HW,2013-11-07 11:21:00,
2013-11-07 03:26:00,48.2,0.0,29.90,SE,135,0.4,0.4,0,0.01,,,0.07,WUHU216HW,2013-11-07 11:26:00,
2013-11-07 03:31:00,48.2,0.0,29.90,SW,225,1.1,1.6,0,0.01,,,0.07,WUHU216HW,2013-11-07 11:31:00,
2013-11-07 03:34:00,48.2,0.0,29.90,WSW,248,1.1,1.6,0,0.01,,,0.07,WUHU216HW,2013-11-07 11:34:00,
2013-11-07 03:39:00,48.4,0.0,29.90,WSW,248,0.4,1.6,0,0.00,,,0.07,WUHU216HW,2013-11-07 11:39:00,
2013-11-07 03:44:00,48.4,0.0,29.90,WSW,248,1.1,1.3,0,0.00,,,0.07,WUHU216HW,2013-11-07 11:44:00,
2013-11-07 03:49:00,48.6,0.0,29.90,WSW,248,1.8,1.8,0,0.00,,,0.07,WUHU216HW,2013-11-07 11:49:00,
2013-11-07 03:54:00,48.6,0.0,29.90,WSW,248,0.4,1.8,0,0.01,,,0.08,WUHU216HW,2013-11-07 11:54:00,
2013-11-07 03:59:00,48.6,0.0,29.89,WSW,248,0.4,1.8,0,0.03,,,0.10,WUHU216HW,2013-11-07 11:59:00,
2013-11-07 04:04:00,48.6,0.0,29.89,WSW,248,0.4,1.1,0,0.04,,,0.11,WUHU216HW,2013-11-07 12:04:00,
2013-11-07 04:09:00,48.6,0.0,29.88,WSW,248,0.0,1.1,0,0.08,,,0.15,WUHU216HW,2013-11-07 12:09:00,
2013-11-07 04:14:00,48.6,0.0,29.88,WSW,248,0.0,0.0,0,0.09,,,0.16,WUHU216HW,2013-11-07 12:14:00,
2013-11-07 04:19:00,48.6,0.0,29.88,South,180,0.9,0.9,0,0.12,,,0.19,WUHU216HW,2013-11-07 12:19:00,
2013-11-07 04:24:00,48.6,0.0,29.88,SW,225,0.4,0.9,0,0.15,,,0.22,WUHU216HW,2013-11-07 12:24:00,
2013-11-07 04:29:00,48.6,0.0,29.88,SW,225,0.4,1.1,0,0.16,,,0.23,WUHU216HW,2013-11-07 12:29:00,
2013-11-07 04:34:00,48.6,0.0,29.88,SW,225,0.2,1.1,0,0.17,,,0.24,WUHU216HW,2013-11-07 12:34:00,
2013-11-07 04:39:00,48.8,0.0,29.88,SW,225,0.0,0.7,0,0.19,,,0.26,WUHU216HW,2013-11-07 12:39:00,
2013-11-07 04:44:00,48.8,0.0,29.87,SSW,203,0.0,1.1,0,0.23,,,0.30,WUHU216HW,2013-11-07 12:44:00,
2013-11-07 04:49:00,48.8,0.0,29.87,ESE,113,0.4,1.1,0,0.25,,,0.32,WUHU216HW,2013-11-07 12:49:00,
2013-11-07 04:54:00,49.1,0.0,29.87,SE,135,0.4,1.1,0,0.26,,,0.34,WUHU216HW,2013-11-07 12:54:00,
2013-11-07 04:59:00,49.1,0.0,29.86,ENE,68,0.0,0.7,0,0.25,,,0.35,WUHU216HW,2013-11-07 12:59:00,
2013-11-07 05:04:00,49.1,0.0,29.86,WSW,248,0.4,0.9,0,0.24,,,0.35,WUHU216HW,2013-11-07 13:04:00,
2013-11-07 05:09:00,49.1,0.0,29.86,ESE,113,0.0,0.9,0,0.22,,,0.37,WUHU216HW,2013-11-07 13:09:00,
2013-11-07 05:14:00,49.1,0.0,29.85,East,90,0.2,0.7,0,0.21,,,0.37,WUHU216HW,2013-11-07 13:14:00,
2013-11-07 05:19:00,49.3,0.0,29.85,WSW,248,0.4,0.4,0,0.18,,,0.37,WUHU216HW,2013-11-07 13:19:00,
2013-11-07 05:24:00,49.3,0.0,29.85,ENE,68,0.4,0.4,0,0.17,,,0.39,WUHU216HW,2013-11-07 13:24:00,
2013-11-07 05:29:00,49.3,0.0,29.85,SSE,158,0.7,0.7,0,0.15,,,0.39,WUHU216HW,2013-11-07 13:29:00,
2013-11-07 05:34:00,49.3,0.0,29.85,WSW,248,0.7,1.3,0,0.15,,,0.39,WUHU216HW,2013-11-07 13:34:00,
2013-11-07 05:39:00,49.3,0.0,29.83,NNE,23,0.4,1.3,0,0.15,,,0.41,WUHU216HW,2013-11-07 13:39:00,
2013-11-07 05:44:00,49.3,0.0,29.83,WSW,248,1.1,1.1,0,0.12,,,0.42,WUHU216HW,2013-11-07 13:44:00,
2013-11-07 05:49:00,49.5,0.0,29.83,WSW,248,2.5,2.5,0,0.10,,,0.42,WUHU216HW,2013-11-07 13:49:00,
2013-11-07 05:54:00,49.5,0.0,29.83,SSW,203,1.1,2.5,0,0.08,,,0.42,WUHU216HW,2013-11-07 13:54:00,
2013-11-07 05:59:00,49.7,0.0,29.83,North,0,0.0,2.5,0,0.07,,,0.42,WUHU216HW,2013-11-07 13:59:00,
2013-11-07 06:04:00,49.7,0.0,29.82,SE,135,1.1,1.1,0,0.07,,,0.42,WUHU216HW,2013-11-07 14:04:00,
2013-11-07 06:09:00,49.9,0.0,29.81,SSE,158,1.1,2.2,0,0.05,,,0.42,WUHU216HW,2013-11-07 14:09:00,
2013-11-07 06:14:00,50.0,0.0,29.80,ESE,113,0.4,2.2,0,0.06,,,0.43,WUHU216HW,2013-11-07 14:14:00,
2013-11-07 06:19:00,50.0,0.0,29.80,SSW,203,2.9,2.9,0,0.06,,,0.43,WUHU216HW,2013-11-07 14:19:00,
2013-11-07 06:24:00,50.2,0.0,29.80,SSE,158,0.2,2.9,0,0.04,,,0.43,WUHU216HW,2013-11-07 14:24:00,
2013-11-07 06:29:00,50.2,0.0,29.80,SW,225,0.9,2.9,0,0.05,,,0.44,WUHU216HW,2013-11-07 14:29:00,
2013-11-07 06:34:00,50.4,0.0,29.80,SE,135,0.0,3.6,0,0.05,,,0.44,WUHU216HW,2013-11-07 14:34:00,
2013-11-07 06:39:00,50.4,0.0,29.80,West,270,0.9,3.6,0,0.03,,,0.44,WUHU216HW,2013-11-07 14:39:00,
2013-11-07 06:44:00,50.6,0.0,29.80,WSW,248,1.8,2.0,0,0.02,,,0.44,WUHU216HW,2013-11-07 14:44:00,
2013-11-07 06:48:00,50.6,0.0,29.79,NW,315,1.1,2.7,0,0.02,,,0.44,WUHU216HW,2013-11-07 14:48:00,
2013-11-07 06:54:00,50.6,0.0,29.79,SSW,203,1.6,2.7,0,0.02,,,0.44,WUHU216HW,2013-11-07 14:54:00,
2013-11-07 06:59:00,50.8,0.0,29.78,WSW,248,1.1,2.0,0,0.02,,,0.44,WUHU216HW,2013-11-07 14:59:00,
2013-11-07 07:04:00,50.8,0.0,29.77,SE,135,0.4,2.0,0,0.02,,,0.44,WUHU216HW,2013-11-07 15:04:00,
2013-11-07 07:09:00,50.8,0.0,29.77,SSE,158,0.7,1.1,0,0.01,,,0.44,WUHU216HW,2013-11-07 15:09:00,
2013-11-07 07:14:00,50.8,0.0,29.77,SSW,203,1.1,1.1,0,0.01,,,0.44,WUHU216HW,2013-11-07 15:14:00,
2013-11-07 07:18:00,50.8,0.0,29.76,East,90,0.4,1.1,0,0.01,,,0.44,WUHU216HW,2013-11-07 15:18:00,
2013-11-07 07:23:00,50.8,0.0,29.76,NW,315,0.4,1.1,0,0.01,,,0.44,WUHU216HW,2013-11-07 15:23:00,
2013-11-07 07:28:00,50.8,0.0,29.76,SSE,158,1.1,1.8,0,0.01,,,0.45,WUHU216HW,2013-11-07 15:28:00,
2013-11-07 07:33:00,50.9,0.0,29.75,NNE,23,0.4,1.8,0,0.01,,,0.45,WUHU216HW,2013-11-07 15:33:00,
2013-11-07 07:38:00,50.9,0.0,29.75,WSW,248,1.1,1.1,0,0.02,,,0.46,WUHU216HW,2013-11-07 15:38:00,
2013-11-07 07:43:00,50.9,0.0,29.75,SW,225,0.4,1.1,0,0.04,,,0.48,WUHU216HW,2013-11-07 15:43:00,
2013-11-07 07:48:00,50.9,0.0,29.76,SE,135,0.2,1.1,0,0.05,,,0.49,WUHU216HW,2013-11-07 15:48:00,
2013-11-07 07:53:00,50.9,0.0,29.77,SSW,203,8.7,8.7,0,0.07,,,0.51,WUHU216HW,2013-11-07 15:53:00,
2013-11-07 07:58:00,50.6,0.0,29.77,West,270,2.5,8.7,0,0.20,,,0.64,WUHU216HW,2013-11-07 15:58:00,
2013-11-07 08:03:00,50.0,0.0,29.77,SW,225,3.1,8.7,0,0.21,,,0.65,WUHU216HW,2013-11-07 16:03:00,
2013-11-07 08:08:00,49.9,0.0,29.77,West,270,4.3,7.6,0,0.22,,,0.66,WUHU216HW,2013-11-07 16:08:00,
2013-11-07 08:13:00,49.7,0.0,29.77,SE,135,4.7,9.2,0,0.23,,,0.67,WUHU216HW,2013-11-07 16:13:00,
2013-11-07 08:18:00,49.5,0.0,29.77,SE,135,4.9,9.2,0,0.24,,,0.68,WUHU216HW,2013-11-07 16:18:00,
2013-11-07 08:23:00,49.5,0.0,29.77,WSW,248,4.0,7.6,0,0.24,,,0.68,WUHU216HW,2013-11-07 16:23:00,
2013-11-07 08:28:00,49.5,0.0,29.77,South,180,3.6,6.0,0,0.24,,,0.69,WUHU216HW,2013-11-07 16:28:00,
2013-11-07 08:33:00,49.5,0.0,29.77,ENE,68,2.9,6.3,0,0.25,,,0.70,WUHU216HW,2013-11-07 16:33:00,
2013-11-07 08:38:00,49.3,0.0,29.77,WSW,248,3.6,6.3,0,0.24,,,0.70,WUHU216HW,2013-11-07 16:38:00,
2013-11-07 08:43:00,49.3,0.0,29.77,SW,225,4.7,6.3,0,0.22,,,0.70,WUHU216HW,2013-11-07 16:43:00,
2013-11-07 08:48:00,49.3,0.0,29.77,SE,135,1.8,4.9,0,0.21,,,0.70,WUHU216HW,2013-11-07 16:48:00,
2013-11-07 08:53:00,49.3,0.0,29.77,West,270,2.2,5.4,0,0.20,,,0.71,WUHU216HW,2013-11-07 16:53:00,
2013-11-07 08:58:00,49.3,0.0,29.78,SSE,158,6.9,6.9,0,0.08,,,0.72,WUHU216HW,2013-11-07 16:58:00,
2013-11-07 09:03:00,49.1,0.0,29.78,ESE,113,1.8,6.9,0,0.07,,,0.72,WUHU216HW,2013-11-07 17:03:00,
2013-11-07 09:08:00,49.1,0.0,29.79,West,270,7.2,7.2,0,0.06,,,0.72,WUHU216HW,2013-11-07 17:08:00,
2013-11-07 09:13:00,49.0,0.0,29.79,SW,225,10.3,10.3,0,0.06,,,0.73,WUHU216HW,2013-11-07 17:13:00,
2013-11-07 09:18:00,49.0,0.0,29.79,SW,225,4.3,10.3,0,0.05,,,0.73,WUHU216HW,2013-11-07 17:18:00,
2013-11-07 09:23:00,48.8,0.0,29.80,WSW,248,7.8,10.3,0,0.06,,,0.74,WUHU216HW,2013-11-07 17:23:00,
2013-11-07 09:28:00,48.6,0.0,29.80,South,180,0.4,7.8,0,0.05,,,0.74,WUHU216HW,2013-11-07 17:28:00,
2013-11-07 09:33:00,48.6,0.0,29.80,SSE,158,1.6,7.8,0,0.05,,,0.75,WUHU216HW,2013-11-07 17:33:00,
2013-11-07 09:38:00,48.6,0.0,29.80,South,180,1.1,4.0,0,0.06,,,0.76,WUHU216HW,2013-11-07 17:38:00,
2013-11-07 09:43:00,48.6,0.0,29.81,East,90,3.8,4.0,0,0.06,,,0.76,WUHU216HW,2013-11-07 17:43:00,
2013-11-07 09:48:00,48.4,0.0,29.81,SE,135,2.0,4.7,0,0.05,,,0.76,WUHU216HW,2013-11-07 17:48:00,
2013-11-07 09:53:00,48.2,0.0,29.81,SSW,203,4.0,4.7,0,0.05,,,0.76,WUHU216HW,2013-11-07 17:53:00,
2013-11-07 09:58:00,48.2,0.0,29.81,SSE,158,2.5,4.5,0,0.04,,,0.76,WUHU216HW,2013-11-07 17:58:00,
2013-11-07 10:03:00,48.1,0.0,29.81,South,180,2.0,6.5,0,0.04,,,0.76,WUHU216HW,2013-11-07 18:03:00,
2013-11-07 10:08:00,47.9,0.0,29.81,NE,45,0.7,6.5,0,0.04,,,0.76,WUHU216HW,2013-11-07 18:08:00,
2013-11-07 10:13:00,47.9,0.0,29.81,SE,135,1.3,4.0,0,0.03,,,0.76,WUHU216HW,2013-11-07 18:13:00,
2013-11-07 10:18:00,47.7,0.0,29.82,WSW,248,1.3,4.3,0,0.03,,,0.76,WUHU216HW,2013-11-07 18:18:00,
2013-11-07 10:23:00,47.9,0.0,29.82,SSE,158,1.8,4.3,0,0.02,,,0.76,WUHU216HW,2013-11-07 18:23:00,
2013-11-07 10:28:00,47.9,0.0,29.82,SW,225,1.1,5.6,0,0.02,,,0.76,WUHU216HW,2013-11-07 18:28:00,
2013-11-07 10:33:00,47.9,0.0,29.82,North,0,2.7,5.6,0,0.01,,,0.76,WUHU216HW,2013-11-07 18:33:00,
2013-11-07 10:38:00,48.1,0.0,29.82,SE,135,2.5,3.4,0,0.00,,,0.76,WUHU216HW,2013-11-07 18:38:00,
2013-11-07 10:43:00,48.2,0.0,29.82,WSW,248,3.8,7.6,0,0.00,,,0.76,WUHU216HW,2013-11-07 18:43:00,
2013-11-07 10:48:00,48.2,0.0,29.82,West,270,2.7,7.6,0,0.00,,,0.76,WUHU216HW,2013-11-07 18:48:00,
2013-11-07 10:53:00,48.6,0.0,29.82,SW,225,1.8,4.7,0,0.00,,,0.76,WUHU216HW,2013-11-07 18:53:00,
2013-11-07 10:58:00,49.0,0.0,29.82,WSW,248,2.7,2.7,0,0.00,,,0.76,WUHU216HW,2013-11-07 18:58:00,
2013-11-07 11:03:00,49.0,0.0,29.82,ESE,113,1.1,3.1,0,0.00,,,0.76,WUHU216HW,2013-11-07 19:03:00,
2013-11-07 11:08:00,49.0,0.0,29.82,SW,225,5.1,5.1,0,0.00,,,0.76,WUHU216HW,2013-11-07 19:08:00,
2013-11-07 11:13:00,49.0,0.0,29.82,SSW,203,1.3,6.7,0,0.00,,,0.76,WUHU216HW,2013-11-07 19:13:00,
2013-11-07 11:18:00,49.0,0.0,29.82,SSE,158,4.0,6.7,0,0.00,,,0.76,WUHU216HW,2013-11-07 19:18:00,
2013-11-07 11:23:00,48.8,0.0,29.81,SW,225,3.1,6.3,0,0.00,,,0.76,WUHU216HW,2013-11-07 19:23:00,
2013-11-07 11:28:00,48.6,0.0,29.81,SSE,158,1.3,7.6,0,0.00,,,0.76,WUHU216HW,2013-11-07 19:28:00,
2013-11-07 11:33:00,48.4,0.0,29.81,SSW,203,1.6,7.6,0,0.00,,,0.76,WUHU216HW,2013-11-07 19:33:00,
2013-11-07 11:38:00,48.4,0.0,29.81,SSE,158,4.0,4.0,0,0.00,,,0.76,WUHU216HW,2013-11-07 19:38:00,
2013-11-07 11:43:00,48.4,0.0,29.81,South,180,3.1,5.1,0,0.00,,,0.76,WUHU216HW,2013-11-07 19:43:00,
2013-11-07 11:48:00,48.4,0.0,29.81,SSW,203,2.5,7.6,0,0.00,,,0.76,WUHU216HW,2013-11-07 19:48:00,
2013-11-07 11:53:00,48.2,0.0,29.81,SE,135,1.8,7.6,0,0.00,,,0.76,WUHU216HW,2013-11-07 19:53:00,
2013-11-07 11:58:00,48.4,0.0,29.80,SW,225,4.0,4.5,0,0.00,,,0.76,WUHU216HW,2013-11-07 19:58:00,
2013-11-07 12:03:00,48.4,0.0,29.80,West,270,2.0,4.0,0,0.00,,,0.76,WUHU216HW,2013-11-07 20:03:00,
2013-11-07 12:08:00,48.4,0.0,29.80,South,180,3.4,4.0,0,0.00,,,0.76,WUHU216HW,2013-11-07 20:08:00,
2013-11-07 12:13:00,48.4,0.0,29.80,SSW,203,4.0,4.0,0,0.00,,,0.76,WUHU216HW,2013-11-07 20:13:00,
2013-11-07 12:18:00,48.4,0.0,29.80,SW,225,3.6,4.0,0,0.00,,,0.76,WUHU216HW,2013-11-07 20:18:00,
2013-11-07 12:23:00,48.6,0.0,29.79,West,270,2.5,4.5,0,0.00,,,0.76,WUHU216HW,2013-11-07 20:23:00,
2013-11-07 12:28:00,48.6,0.0,29.79,SW,225,3.4,7.2,0,0.00,,,0.76,WUHU216HW,2013-11-07 20:28:00,
2013-11-07 12:33:00,48.6,0.0,29.79,SW,225,2.9,7.2,0,0.00,,,0.76,WUHU216HW,2013-11-07 20:33:00,
2013-11-07 12:38:00,48.8,0.0,29.79,SSW,203,1.8,6.3,0,0.00,,,0.76,WUHU216HW,2013-11-07 20:38:00,
2013-11-07 12:43:00,48.6,0.0,29.79,West,270,1.6,6.3,0,0.00,,,0.76,WUHU216HW,2013-11-07 20:43:00,
2013-11-07 12:48:00,48.6,0.0,29.78,SSE,158,6.3,6.3,0,0.00,,,0.76,WUHU216HW,2013-11-07 20:48:00,
2013-11-07 12:53:00,48.6,0.0,29.78,WSW,248,3.4,6.3,0,0.01,,,0.77,WUHU216HW,2013-11-07 20:53:00,
2013-11-07 12:58:00,48.6,0.0,29.78,NE,45,1.3,6.3,0,0.02,,,0.78,WUHU216HW,2013-11-07 20:58:00,
2013-11-07 13:03:00,48.4,0.0,29.79,South,180,2.2,3.6,0,0.02,,,0.78,WUHU216HW,2013-11-07 21:03:00,
2013-11-07 13:08:00,48.2,0.0,29.79,South,180,2.9,5.1,0,0.03,,,0.79,WUHU216HW,2013-11-07 21:08:00,
2013-11-07 13:13:00,48.2,0.0,29.79,SW,225,2.5,5.1,0,0.05,,,0.81,WUHU216HW,2013-11-07 21:13:00,
2013-11-07 13:18:00,48.2,0.0,29.79,SSW,203,2.0,4.7,0,0.07,,,0.83,WUHU216HW,2013-11-07 21:18:00,
2013-11-07 13:23:00,48.1,0.0,29.79,SSE,158,2.5,4.0,0,0.09,,,0.85,WUHU216HW,2013-11-07 21:23:00,
2013-11-07 13:28:00,47.9,0.0,29.79,SE,135,1.1,4.3,0,0.11,,,0.87,WUHU216HW,2013-11-07 21:28:00,
2013-11-07 13:32:00,47.9,0.0,29.79,WSW,248,2.5,4.3,0,0.13,,,0.89,WUHU216HW,2013-11-07 21:32:00,
2013-11-07 13:38:00,47.9,0.0,29.79,SSW,203,2.0,4.7,0,0.17,,,0.93,WUHU216HW,2013-11-07 21:38:00,
2013-11-07 13:43:00,47.9,0.0,29.79,SW,225,2.5,4.7,0,0.19,,,0.95,WUHU216HW,2013-11-07 21:43:00,
2013-11-07 13:48:00,47.9,0.0,29.78,SE,135,4.0,4.0,0,0.22,,,0.98,WUHU216HW,2013-11-07 21:48:00,
2013-11-07 13:53:00,47.9,0.0,29.79,SW,225,1.8,6.9,0,0.23,,,1.00,WUHU216HW,2013-11-07 21:53:00,
2013-11-07 13:58:00,47.9,0.0,29.78,SW,225,3.4,6.9,0,0.22,,,1.00,WUHU216HW,2013-11-07 21:58:00,
2013-11-07 14:03:00,47.9,0.0,29.77,SE,135,3.4,3.4,0,0.24,,,1.02,WUHU216HW,2013-11-07 22:03:00,
2013-11-07 14:08:00,47.9,0.0,29.77,South,180,4.7,4.7,0,0.23,,,1.02,WUHU216HW,2013-11-07 22:08:00,
2013-11-07 14:13:00,47.9,0.0,29.77,WSW,248,0.9,4.7,0,0.21,,,1.02,WUHU216HW,2013-11-07 22:13:00,
2013-11-07 14:18:00,47.9,0.0,29.77,SSE,158,1.1,4.7,0,0.19,,,1.02,WUHU216HW,2013-11-07 22:18:00,
2013-11-07 14:22:00,47.9,0.0,29.77,SSE,158,2.7,4.7,0,0.19,,,1.04,WUHU216HW,2013-11-07 22:22:00,
2013-11-07 14:27:00,47.9,0.0,29.76,SE,135,3.4,4.7,0,0.17,,,1.04,WUHU216HW,2013-11-07 22:27:00,
2013-11-07 14:32:00,47.9,0.0,29.76,SSW,203,5.4,8.7,0,0.16,,,1.05,WUHU216HW,2013-11-07 22:32:00,
2013-11-07 14:37:00,47.9,0.0,29.76,SSW,203,2.0,8.7,0,0.12,,,1.05,WUHU216HW,2013-11-07 22:37:00,
2013-11-07 14:42:00,47.9,0.0,29.76,South,180,2.9,5.4,0,0.10,,,1.05,WUHU216HW,2013-11-07 22:42:00,
2013-11-07 14:47:00,47.9,0.0,29.76,SSE,158,2.5,4.7,0,0.08,,,1.06,WUHU216HW,2013-11-07 22:47:00,
2013-11-07 14:52:00,47.9,0.0,29.76,SSE,158,3.1,7.4,0,0.07,,,1.07,WUHU216HW,2013-11-07 22:52:00,
2013-11-07 14:57:00,47.9,0.0,29.75,SSE,158,1.8,7.4,0,0.07,,,1.07,WUHU216HW,2013-11-07 22:57:00,
2013-11-07 15:02:00,47.9,0.0,29.75,SSE,158,2.9,3.8,0,0.05,,,1.07,WUHU216HW,2013-11-07 23:02:00,
2013-11-07 15:07:00,47.9,0.0,29.75,SW,225,1.1,4.9,0,0.06,,,1.08,WUHU216HW,2013-11-07 23:07:00,
2013-11-07 15:12:00,47.9,0.0,29.75,South,180,1.8,4.9,0,0.06,,,1.08,WUHU216HW,2013-11-07 23:12:00,
2013-11-07 15:17:00,47.9,0.0,29.75,SW,225,2.5,4.0,0,0.06,,,1.08,WUHU216HW,2013-11-07 23:17:00,
2013-11-07 15:22:00,47.9,0.0,29.75,South,180,3.1,6.7,0,0.04,,,1.08,WUHU216HW,2013-11-07 23:22:00,
2013-11-07 15:27:00,47.9,0.0,29.75,SE,135,2.9,6.9,0,0.05,,,1.09,WUHU216HW,2013-11-07 23:27:00,
2013-11-07 15:32:00,47.9,0.0,29.75,SW,225,1.6,6.9,0,0.04,,,1.09,WUHU216HW,2013-11-07 23:32:00,
2013-11-07 15:37:00,47.9,0.0,29.74,SSE,158,3.6,4.5,0,0.04,,,1.09,WUHU216HW,2013-11-07 23:37:00,
2013-11-07 15:42:00,47.9,0.0,29.74,SSE,158,2.5,4.5,0,0.06,,,1.11,WUHU216HW,2013-11-07 23:42:00,
2013-11-07 15:47:00,47.9,0.0,29.74,SSE,158,2.5,3.8,0,0.06,,,1.12,WUHU216HW,2013-11-07 23:47:00,
2013-11-07 15:52:00,47.9,0.0,29.73,SSW,203,4.0,4.7,0,0.06,,,1.13,WUHU216HW,2013-11-07 23:52:00,
2013-11-07 15:57:00,47.9,0.0,29.72,SW,225,1.6,4.7,0,0.07,,,1.14,WUHU216HW,2013-11-07 23:57:00,
2013-11-07 16:02:00,47.9,0.0,29.72,WSW,248,2.9,4.0,0,0.07,,,1.14,WUHU216HW,2013-11-08 00:02:00,
2013-11-07 16:07:00,47.9,0.0,29.72,SSE,158,3.1,4.3,0,0.07,,,1.15,WUHU216HW,2013-11-08 00:07:00,
2013-11-07 16:12:00,47.9,0.0,29.72,ESE,113,3.1,8.5,0,0.07,,,1.15,WUHU216HW,2013-11-08 00:12:00,
2013-11-07 16:17:00,47.9,0.0,29.73,SSE,158,1.6,8.5,0,0.08,,,1.16,WUHU216HW,2013-11-08 00:17:00,
2013-11-07 16:22:00,47.9,0.0,29.73,WSW,248,1.6,4.7,0,0.08,,,1.16,WUHU216HW,2013-11-08 00:22:00,
2013-11-07 16:28:00,47.9,0.0,29.73,SW,225,6.3,6.3,0,0.07,,,1.16,WUHU216HW,2013-11-08 00:28:00,
2013-11-07 16:32:00,47.9,0.0,29.73,SW,225,0.9,6.3,0,0.08,,,1.17,WUHU216HW,2013-11-08 00:32:00,
2013-11-07 16:38:00,47.9,0.0,29.73,SSE,158,4.5,6.3,0,0.08,,,1.17,WUHU216HW,2013-11-08 00:38:00,
2013-11-07 16:43:00,47.9,0.0,29.73,WNW,293,3.4,5.1,0,0.07,,,1.18,WUHU216HW,2013-11-08 00:43:00,
2013-11-07 16:48:00,47.9,0.0,29.73,SSW,203,4.3,7.2,0,0.06,,,1.18,WUHU216HW,2013-11-08 00:48:00,
2013-11-07 16:53:00,47.9,0.0,29.73,South,180,3.4,7.2,0,0.05,,,1.18,WUHU216HW,2013-11-08 00:53:00,
2013-11-07 16:58:00,48.1,0.0,29.74,SSE,158,4.9,4.9,0,0.05,,,1.19,WUHU216HW,2013-11-08 00:58:00,
2013-11-07 17:03:00,48.1,0.0,29.74,SSW,203,3.1,4.9,0,0.05,,,1.19,WUHU216HW,2013-11-08 01:03:00,
2013-11-07 17:08:00,48.1,0.0,29.74,SSW,203,2.0,4.9,0,0.04,,,1.19,WUHU216HW,2013-11-08 01:08:00,
2013-11-07 17:13:00,48.1,0.0,29.75,South,180,2.2,7.8,0,0.04,,,1.19,WUHU216HW,2013-11-08 01:13:00,
2013-11-07 17:18:00,48.1,0.0,29.75,ESE,113,3.8,7.8,0,0.04,,,1.20,WUHU216HW,2013-11-08 01:18:00,
2013-11-07 17:23:00,48.2,0.0,29.75,WSW,248,5.4,5.4,0,0.04,,,1.20,WUHU216HW,2013-11-08 01:23:00,
2013-11-07 17:28:00,48.2,0.0,29.75,NE,45,3.4,5.4,0,0.04,,,1.20,WUHU216HW,2013-11-08 01:28:00,
2013-11-07 17:33:00,48.2,0.0,29.76,SW,225,4.7,5.4,0,0.03,,,1.20,WUHU216HW,2013-11-08 01:33:00,
2013-11-07 17:38:00,48.4,0.0,29.76,SE,135,2.9,4.9,0,0.02,,,1.20,WUHU216HW,2013-11-08 01:38:00,
2013-11-07 17:43:00,48.4,0.0,29.77,SE,135,2.7,4.9,0,0.02,,,1.20,WUHU216HW,2013-11-08 01:43:00,
2013-11-07 17:48:00,48.6,0.0,29.77,SSE,158,2.7,4.7,0,0.02,,,1.20,WUHU216HW,2013-11-08 01:48:00,
2013-11-07 17:53:00,48.6,0.0,29.77,SW,225,3.6,7.6,0,0.02,,,1.20,WUHU216HW,2013-11-08 01:53:00,
2013-11-07 17:58:00,48.6,0.0,29.77,SSW,203,3.6,7.6,0,0.01,,,1.20,WUHU216HW,2013-11-08 01:58:00,
2013-11-07 18:03:00,48.6,0.0,29.78,SSW,203,2.0,5.4,0,0.01,,,1.20,WUHU216HW,2013-11-08 02:03:00,
2013-11-07 18:08:00,48.6,0.0,29.78,SSE,158,3.8,5.4,0,0.01,,,1.20,WUHU216HW,2013-11-08 02:08:00,
2013-11-07 18:13:00,48.4,0.0,29.78,SSE,158,4.7,4.7,0,0.01,,,1.20,WUHU216HW,2013-11-08 02:13:00,
2013-11-07 18:18:00,48.4,0.0,29.79,SE,135,3.6,5.1,0,0.00,,,1.20,WUHU216HW,2013-11-08 02:18:00,
2013-11-07 18:23:00,48.4,0.0,29.80,SE,135,6.0,6.0,0,0.00,,,1.20,WUHU216HW,2013-11-08 02:23:00,
2013-11-07 18:28:00,48.4,0.0,29.80,SSE,158,4.0,8.7,0,0.00,,,1.20,WUHU216HW,2013-11-08 02:28:00,
2013-11-07 18:33:00,48.6,0.0,29.80,SW,225,6.7,8.7,0,0.00,,,1.20,WUHU216HW,2013-11-08 02:33:00,
2013-11-07 18:38:00,48.4,0.0,29.81,East,90,4.3,6.9,0,0.00,,,1.20,WUHU216HW,2013-11-08 02:38:00,
2013-11-07 18:43:00,48.4,0.0,29.81,ENE,68,1.1,6.7,0,0.00,,,1.20,WUHU216HW,2013-11-08 02:43:00,
2013-11-07 18:48:00,48.4,0.0,29.82,ESE,113,2.9,6.3,0,0.00,,,1.20,WUHU216HW,2013-11-08 02:48:00,
2013-11-07 18:53:00,48.4,0.0,29.82,SW,225,3.4,6.3,0,0.00,,,1.20,WUHU216HW,2013-11-08 02:53:00,
2013-11-07 18:58:00,48.4,0.0,29.83,SW,225,4.7,4.7,0,0.00,,,1.20,WUHU216HW,2013-11-08 02:58:00,
2013-11-07 19:03:00,48.4,0.0,29.83,SE,135,4.0,5.4,0,0.00,,,1.20,WUHU216HW,2013-11-08 03:03:00,
2013-11-07 19:08:00,48.4,0.0,29.84,SSE,158,1.1,9.8,0,0.00,,,1.20,WUHU216HW,2013-11-08 03:08:00,
2013-11-07 19:13:00,48.4,0.0,29.85,WSW,248,2.5,9.8,0,0.00,,,1.20,WUHU216HW,2013-11-08 03:13:00,
2013-11-07 19:18:00,48.2,0.0,29.85,WSW,248,4.3,4.3,0,0.00,,,1.20,WUHU216HW,2013-11-08 03:18:00,
2013-11-07 19:23:00,48.4,0.0,29.85,SSE,158,2.2,4.3,0,0.00,,,1.20,WUHU216HW,2013-11-08 03:23:00,
2013-11-07 19:28:00,48.2,0.0,29.85,SSW,203,1.3,4.3,0,0.00,,,1.20,WUHU216HW,2013-11-08 03:28:00,
2013-11-07 19:33:00,48.2,0.0,29.86,West,270,6.9,6.9,0,0.00,,,1.20,WUHU216HW,2013-11-08 03:33:00,
2013-11-07 19:38:00,48.2,0.0,29.87,NNW,338,1.8,6.9,0,0.00,,,1.20,WUHU216HW,2013-11-08 03:38:00,
2013-11-07 19:43:00,48.2,0.0,29.87,SE,135,2.5,6.9,0,0.00,,,1.20,WUHU216HW,2013-11-08 03:43:00,
2013-11-07 19:48:00,48.1,0.0,29.88,WSW,248,1.3,3.8,0,0.00,,,1.20,WUHU216HW,2013-11-08 03:48:00,
2013-11-07 19:53:00,48.1,0.0,29.88,SE,135,1.1,3.8,0,0.00,,,1.20,WUHU216HW,2013-11-08 03:53:00,
2013-11-07 19:58:00,48.1,0.0,29.89,WSW,248,2.5,2.5,0,0.00,,,1.20,WUHU216HW,2013-11-08 03:58:00,
2013-11-07 20:03:00,47.9,0.0,29.89,SSW,203,3.1,5.6,0,0.00,,,1.20,WUHU216HW,2013-11-08 04:03:00,
2013-11-07 20:08:00,47.9,0.0,29.90,SSW,203,8.3,8.7,0,0.00,,,1.20,WUHU216HW,2013-11-08 04:08:00,
2013-11-07 20:13:00,47.9,0.0,29.90,South,180,9.6,9.6,0,0.00,,,1.20,WUHU216HW,2013-11-08 04:13:00,
2013-11-07 20:18:00,47.9,0.0,29.90,SSW,203,4.0,9.6,0,0.00,,,1.20,WUHU216HW,2013-11-08 04:18:00,
2013-11-07 20:23:00,47.9,0.0,29.91,SSE,158,2.7,9.6,0,0.00,,,1.20,WUHU216HW,2013-11-08 04:23:00,
2013-11-07 20:28:00,48.1,0.0,29.91,SSW,203,4.7,8.5,0,0.00,,,1.20,WUHU216HW,2013-11-08 04:28:00,
2013-11-07 20:33:00,48.1,0.0,29.91,SE,135,4.5,8.5,0,0.00,,,1.20,WUHU216HW,2013-11-08 04:33:00,
2013-11-07 20:38:00,48.1,0.0,29.92,ESE,113,4.0,6.3,0,0.00,,,1.20,WUHU216HW,2013-11-08 04:38:00,
2013-11-07 20:43:00,48.1,0.0,29.92,West,270,3.1,6.3,0,0.00,,,1.20,WUHU216HW,2013-11-08 04:43:00,
2013-11-07 20:48:00,48.1,0.0,29.93,SE,135,3.8,6.3,0,0.00,,,1.20,WUHU216HW,2013-11-08 04:48:00,
2013-11-07 20:53:00,48.1,0.0,29.93,SE,135,2.5,6.3,0,0.00,,,1.20,WUHU216HW,2013-11-08 04:53:00,
2013-11-07 20:58:00,48.1,0.0,29.93,SSE,158,5.4,6.3,0,0.00,,,1.20,WUHU216HW,2013-11-08 04:58:00,
2013-11-07 21:01:00,48.1,0.0,29.93,SSW,203,3.4,10.5,0,0.00,,,1.20,WUHU216HW,2013-11-08 05:01:00,
2013-11-07 21:02:00,48.1,0.0,29.94,South,180,3.4,10.5,0,0.00,,,1.20,WUHU216HW,2013-11-08 05:02:00,
2013-11-07 21:07:00,48.1,0.0,29.95,SE,135,3.1,10.5,0,0.00,,,1.20,WUHU216HW,2013-11-08 05:07:00,
2013-11-07 21:12:00,47.9,0.0,29.95,SE,135,0.9,3.4,0,0.00,,,1.20,WUHU216HW,2013-11-08 05:12:00,
2013-11-07 21:17:00,48.1,0.0,29.95,SE,135,2.5,3.1,0,0.00,,,1.20,WUHU216HW,2013-11-08 05:17:00,
2013-11-07 21:22:00,47.9,0.0,29.95,SSE,158,1.6,5.8,0,0.00,,,1.20,WUHU216HW,2013-11-08 05:22:00,
2013-11-07 21:27:00,47.9,0.0,29.95,ESE,113,3.6,5.8,0,0.00,,,1.20,WUHU216HW,2013-11-08 05:27:00,
2013-11-07 21:32:00,47.9,0.0,29.96,SSE,158,1.3,6.9,0,0.00,,,1.20,WUHU216HW,2013-11-08 05:32:00,
2013-11-07 21:37:00,47.9,0.0,29.96,WSW,248,1.8,6.9,0,0.00,,,1.20,WUHU216HW,2013-11-08 05:37:00,
2013-11-07 21:42:00,47.9,0.0,29.96,SSE,158,3.8,4.3,0,0.00,,,1.20,WUHU216HW,2013-11-08 05:42:00,
2013-11-07 21:47:00,47.9,0.0,29.96,SSE,158,3.1,4.3,0,0.00,,,1.20,WUHU216HW,2013-11-08 05:47:00,
2013-11-07 21:52:00,47.9,0.0,29.97,SSW,203,1.8,10.5,0,0.00,,,1.20,WUHU216HW,2013-11-08 05:52:00,
2013-11-07 21:57:00,47.9,0.0,29.97,South,180,0.9,10.5,0,0.00,,,1.20,WUHU216HW,2013-11-08 05:57:00,
2013-11-07 22:02:00,47.7,0.0,29.98,SE,135,1.6,2.5,0,0.00,,,1.20,WUHU216HW,2013-11-08 06:02:00,
2013-11-07 22:07:00,47.7,0.0,29.97,SSE,158,1.3,4.0,0,0.00,,,1.20,WUHU216HW,2013-11-08 06:07:00,
2013-11-07 22:12:00,47.7,0.0,29.97,SSE,158,3.1,5.8,0,0.00,,,1.20,WUHU216HW,2013-11-08 06:12:00,
2013-11-07 22:17:00,47.7,0.0,29.97,South,180,1.8,5.8,0,0.00,,,1.20,WUHU216HW,2013-11-08 06:17:00,
2013-11-07 22:22:00,47.7,0.0,29.97,SSW,203,3.4,5.4,0,0.00,,,1.20,WUHU216HW,2013-11-08 06:22:00,
2013-11-07 22:27:00,47.5,0.0,29.97,SE,135,0.4,6.5,0,0.00,,,1.20,WUHU216HW,2013-11-08 06:27:00,
2013-11-07 22:32:00,47.5,0.0,29.97,ESE,113,2.0,6.5,0,0.00,,,1.20,WUHU216HW,2013-11-08 06:32:00,
2013-11-07 22:37:00,47.5,0.0,29.97,SE,135,1.8,4.7,0,0.00,,,1.20,WUHU216HW,2013-11-08 06:37:00,
2013-11-07 22:42:00,47.5,0.0,29.97,WSW,248,2.5,3.8,0,0.00,,,1.20,WUHU216HW,2013-11-08 06:42:00,
2013-11-07 22:47:00,47.5,0.0,29.96,SW,225,3.4,3.8,0,0.00,,,1.20,WUHU216HW,2013-11-08 06:47:00,
2013-11-07 22:52:00,47.5,0.0,29.96,SSE,158,3.4,4.0,0,0.00,,,1.20,WUHU216HW,2013-11-08 06:52:00,
2013-11-07 22:57:00,47.5,0.0,29.96,SSW,203,2.9,10.5,0,0.00,,,1.20,WUHU216HW,2013-11-08 06:57:00,
2013-11-07 23:02:00,47.5,0.0,29.97,South,180,2.0,10.5,0,0.00,,,1.20,WUHU216HW,2013-11-08 07:02:00,
2013-11-07 23:07:00,47.5,0.0,29.97,SW,225,3.4,5.4,0,0.00,,,1.20,WUHU216HW,2013-11-08 07:07:00,
2013-11-07 23:12:00,47.5,0.0,29.97,South,180,4.9,4.9,0,0.00,,,1.20,WUHU216HW,2013-11-08 07:12:00,
2013-11-07 23:17:00,47.5,0.0,29.97,SSW,203,5.8,8.3,0,0.00,,,1.20,WUHU216HW,2013-11-08 07:17:00,
2013-11-07 23:22:00,47.3,0.0,29.97,SSE,158,4.9,8.3,0,0.00,,,1.20,WUHU216HW,2013-11-08 07:22:00,
2013-11-07 23:27:00,47.3,0.0,29.97,ESE,113,3.6,6.7,0,0.00,,,1.20,WUHU216HW,2013-11-08 07:27:00,
2013-11-07 23:32:00,47.3,0.0,29.98,SSE,158,5.1,10.5,0,0.00,,,1.20,WUHU216HW,2013-11-08 07:32:00,
2013-11-07 23:37:00,47.3,0.0,29.98,SSE,158,2.7,11.0,0,0.00,,,1.20,WUHU216HW,2013-11-08 07:37:00,
2013-11-07 23:42:00,47.3,0.0,29.98,NNW,338,3.4,11.0,0,0.00,,,1.20,WUHU216HW,2013-11-08 07:42:00,
2013-11-07 23:47:00,47.3,0.0,29.98,SE,135,3.4,5.8,0,0.00,,,1.20,WUHU216HW,2013-11-08 07:47:00,
2013-11-07 23:52:00,47.3,0.0,29.98,SSE,158,3.8,5.8,0,0.00,,,1.20,WUHU216HW,2013-11-08 07:52:00,
2013-11-07 23:57:00,47.3,0.0,29.98,SSW,203,8.3,11.4,0,0.00,,,1.20,WUHU216HW,2013-11-08 07:57:00,